Wind_Speed
6 6 6 6 5 5 4 4 2 1 0 1 2 3 4 4 5 5 5 1 1 3 6 8 11 11 11 9 8 9 10 11 13 15 15 13 10 8 6 5 4 3 4 5 6 8 14 20 22
6 6 6 6 5 7 5 2 1 1 2 2 2 3 4 4 3 6 7 4 3 1 3 7 9 11 10 8 7 8 9 11 13 15 17 15 12 9 7 6 5 4 4 5 6 7 10 19 23
7 7 7 5 5 6 5 2 2 3 4 4 3 4 5 5 3 5 7 6 6 4 3 5 8 10 9 8 6 7 8 10 13 15 17 16 13 10 8 7 7 5 5 5 6 5 5 13 21
7 7 6 4 4 4 3 2 2 4 6 7 7 6 5 5 4 4 5 6 8 7 4 4 6 8 8 7 6 5 7 10 13 15 16 16 14 12 9 8 8 6 6 6 6 5 2 8 16
8 6 5 5 4 1 1 2 3 6 7 8 8 8 7 5 3 4 5 6 8 8 5 3 4 6 7 6 5 5 6 8 11 14 17 17 15 12 10 9 8 7 6 5 5 5 1 5 11
10 7 4 6 4 1 2 3 5 7 8 8 9 8 9 7 5 3 5 6 8 8 7 4 3 4 6 6 5 5 5 7 10 13 16 17 15 13 11 11 9 7 7 5 4 3 1 4 9
13 10 3 1 2 0 2 3 6 8 9 9 9 8 8 7 6 4 5 6 8 9 8 6 5 4 5 7 6 6 6 7 9 12 15 16 15 13 11 10 9 7 7 6 5 4 2 4 8
16 14 9 5 5 3 2 3 5 7 9 9 10 8 7 7 6 5 5 6 8 10 10 8 7 5 5 6 7 7 6 7 8 10 12 14 14 13 12 10 8 7 7 7 6 6 6 6 8
17 15 13 10 10 6 4 4 6 7 7 8 9 9 7 7 7 6 6 7 9 11 11 10 9 7 6 6 6 7 6 6 7 9 11 13 14 13 12 10 9 8 8 7 7 7 9 10 10
17 17 16 12 9 7 6 7 8 8 5 6 8 8 8 8 8 8 7 7 10 11 12 12 12 10 9 9 9 8 7 7 7 8 11 13 14 13 11 9 9 10 9 8 7 8 10 13 14
19 18 18 15 13 11 9 9 10 11 9 6 6 8 8 9 9 9 10 9 10 12 13 13 13 13 12 11 11 10 9 8 8 8 10 13 14 13 12 9 9 11 11 9 7 8 10 13 16
18 18 18 18 17 15 14 13 11 12 14 12 10 10 11 11 11 10 10 10 10 12 13 14 14 14 14 14 13 13 12 10 9 8 9 12 14 15 14 11 9 11 12 10 8 9 11 13 15
19 19 19 19 19 19 18 17 15 15 18 17 15 14 14 14 13 12 11 12 12 13 14 15 16 17 17 16 15 15 14 13 11 9 8 10 12 13 13 12 12 11 11 10 8 9 11 13 14
21 21 21 23 24 23 22 21 20 20 22 22 19 18 17 16 14 12 12 14 15 15 16 17 18 19 18 18 16 15 14 13 12 10 8 9 11 13 14 14 14 14 12 10 8 9 11 13 15
25 25 24 25 26 26 26 23 24 26 27 27 25 23 21 19 16 14 13 15 17 17 17 17 18 18 17 16 15 14 14 13 11 10 9 8 9 12 14 14 14 15 14 13 11 10 11 14 16
30 29 28 28 28 28 29 27 28 29 30 31 30 28 26 23 20 19 16 16 17 18 18 17 16 16 15 14 14 14 14 13 12 11 11 10 9 10 13 14 14 14 15 14 12 12 13 15 17
32 32 32 32 32 33 34 33 32 32 32 33 32 31 30 27 24 23 21 19 18 19 19 17 16 16 15 14 14 15 16 15 14 13 13 13 11 11 12 14 15 15 16 16 14 12 14 17 19
34 35 36 37 37 38 39 38 37 37 37 36 35 35 34 32 29 26 24 22 19 18 19 19 18 18 18 17 15 16 16 16 16 15 14 13 13 13 14 15 16 17 19 19 18 16 15 19 21
35 37 39 40 41 41 41 40 38 39 39 37 38 38 38 36 33 30 27 24 22 19 19 20 20 20 20 19 17 16 15 15 15 15 14 14 15 16 18 18 18 20 21 21 21 20 18 19 21
34 37 39 40 41 42 41 40 38 38 38 39 39 40 40 38 36 34 31 27 24 21 20 21 21 21 21 20 18 16 15 14 14 14 14 15 16 18 20 21 21 23 24 24 24 24 21 20 21
35 37 39 41 42 43 42 39 36 36 37 37 37 38 40 40 39 39 34 29 26 23 22 22 22 22 22 21 19 16 15 14 14 15 17 18 20 21 22 23 24 25 26 26 26 25 23 21 22
34 36 39 41 41 41 41 40 32 33 33 32 30 32 36 40 41 40 36 31 27 26 25 24 23 22 22 21 18 17 15 15 15 17 19 21 22 23 24 24 24 25 27 27 27 25 23 22 23
30 31 34 36 38 39 38 39 32 32 31 30 28 28 30 36 40 39 35 31 28 29 29 26 24 22 21 20 17 17 16 17 19 20 22 23 23 24 24 24 24 25 26 27 27 25 24 24 25
33 32 31 30 31 31 30 32 30 31 31 30 28 26 26 29 36 37 35 32 33 35 32 26 24 22 21 18 16 16 17 19 21 22 23 24 24 23 23 23 24 25 26 26 26 25 25 25 27
35 34 32 30 27 25 23 24 27 28 29 28 26 23 21 23 27 31 34 36 36 35 30 24 22 20 18 16 15 16 18 21 22 23 24 24 24 23 23 23 23 24 25 24 24 24 25 27 27
36 34 32 31 28 22 21 22 22 22 22 21 19 17 18 18 20 25 29 31 33 33 28 23 19 16 15 15 16 18 20 22 22 23 24 24 24 24 23 22 22 23 22 22 21 22 23 25 25
38 33 31 30 29 24 22 23 23 21 17 16 15 16 17 18 19 22 25 26 27 27 24 18 14 12 13 16 18 20 21 22 23 24 24 24 24 23 23 22 22 21 21 19 18 18 20 22 23
37 31 29 28 26 22 20 21 23 21 20 18 18 18 18 20 22 24 25 25 22 20 18 14 11 11 14 17 20 21 22 22 23 24 24 24 23 22 21 21 21 20 19 17 15 14 16 18 20
28 27 26 25 23 21 18 17 19 19 20 19 19 19 20 20 22 23 23 21 18 16 12 10 10 12 15 18 20 21 22 23 24 26 25 24 22 21 20 20 19 18 16 15 14 13 14 15 17
18 19 21 22 20 20 18 17 15 14 14 16 17 16 15 15 15 14 14 12 10 8 8 9 11 14 17 20 22 23 25 25 25 24 24 22 20 19 19 18 18 17 16 15 14 13 13 14 15
Wind_Direction
177 185 179 184 187 198 204 200 199 214 124 23 320 299 289 283 278 269 283 287 350 22 22 20 20 23 25 32 42 39 31 24 20 15 11 6 4 4 360 358 351 320 299 293 288 264 236 224 218
180 184 176 188 200 194 188 188 175 58 40 26 342 335 321 320 298 267 269 261 240 287 355 12 17 21 24 31 38 36 28 22 16 13 12 9 5 2 353 343 342 329 311 310 309 291 244 223 217
182 177 179 195 211 195 178 141 70 42 21 6 1 354 341 345 334 280 266 253 236 242 294 359 17 21 24 30 34 31 25 21 18 14 12 13 11 6 351 337 335 327 316 315 327 316 256 220 216
181 185 193 211 225 194 162 116 70 34 14 2 7 2 352 342 327 286 263 235 229 235 262 338 16 23 24 28 29 21 17 21 23 17 13 14 15 12 1 341 329 324 315 312 327 338 280 211 212
181 189 211 231 245 235 101 34 4 9 358 345 350 355 357 354 329 274 254 231 226 229 243 299 1 19 18 18 19 12 13 19 21 18 15 14 14 12 5 350 330 319 314 308 317 341 340 195 200
192 192 226 224 215 70 43 11 342 337 340 328 323 335 348 346 341 289 253 237 231 228 233 264 313 356 4 6 2 359 6 13 16 16 14 15 12 8 0 350 337 319 312 304 298 316 328 190 195
202 202 210 229 204 194 18 0 340 334 338 331 321 325 334 332 332 308 270 238 228 227 232 255 281 321 346 359 355 352 355 4 11 13 15 16 12 5 356 348 340 326 310 302 283 266 241 194 201
209 215 228 256 263 256 282 311 318 326 334 334 332 334 331 326 327 318 285 249 231 227 232 248 265 286 322 349 358 353 349 353 2 10 16 17 13 8 2 356 348 338 319 300 280 253 236 215 203
218 223 234 254 265 259 251 269 290 306 324 330 336 338 335 336 339 335 306 264 241 235 236 248 257 266 285 308 333 350 346 341 346 0 13 16 15 11 9 7 1 349 335 313 281 258 239 229 218
225 230 236 252 272 268 262 265 276 283 303 327 325 325 327 331 338 340 327 287 256 244 241 246 253 259 272 284 294 311 326 328 331 350 10 17 18 15 12 11 5 353 338 318 289 264 248 237 230
232 236 241 252 273 284 282 274 277 285 285 293 307 313 318 323 326 327 324 306 275 256 248 246 251 257 267 278 287 288 299 312 322 341 3 12 18 16 11 5 360 353 345 326 296 268 253 243 237
243 248 254 263 272 279 276 273 274 281 283 285 299 312 319 323 325 322 315 305 289 269 259 255 255 259 267 276 284 283 283 294 307 326 355 8 14 15 10 359 352 350 346 337 305 270 255 249 244
243 247 253 261 264 263 265 268 271 276 279 283 294 305 311 314 316 314 302 289 282 268 258 256 258 262 267 275 281 282 280 283 293 306 332 352 3 6 8 2 351 347 343 334 308 278 262 254 249
253 254 252 252 255 258 261 267 272 273 275 278 284 292 296 300 303 303 295 280 273 265 259 257 259 263 268 272 275 277 280 282 287 295 311 330 345 352 354 358 352 349 345 333 306 283 267 257 253
256 257 257 256 256 259 263 266 272 275 278 280 281 283 286 290 293 294 290 280 272 267 262 259 260 263 266 268 270 274 278 281 283 286 294 308 327 338 341 344 342 339 340 338 318 291 270 257 253
257 258 259 261 262 262 264 266 270 275 278 280 281 280 280 282 285 288 287 282 276 272 267 262 262 264 265 267 270 276 281 281 280 281 284 292 306 320 326 326 326 324 326 327 320 297 277 262 255
258 260 260 260 262 263 264 266 268 273 274 276 277 277 278 278 280 283 284 281 280 277 273 269 269 268 265 265 273 281 285 284 282 283 284 289 298 306 310 312 311 308 308 309 307 299 283 270 261
263 263 262 262 262 263 265 267 269 273 274 274 274 274 277 277 277 278 280 280 280 279 277 274 271 268 264 264 269 276 280 281 283 287 286 284 294 299 301 300 298 296 296 296 296 291 282 272 265
267 266 266 266 265 264 266 268 270 273 274 274 272 273 275 276 272 273 275 276 275 276 276 275 273 269 268 267 268 270 275 281 286 288 286 281 288 294 296 294 291 288 288 287 285 283 277 269 263
268 267 267 266 266 266 265 265 266 268 271 272 271 271 271 270 267 271 272 271 271 270 272 274 273 272 271 271 273 276 280 286 290 290 288 288 290 293 293 292 288 285 283 280 278 278 275 265 259
269 268 266 266 265 266 266 263 263 263 265 267 267 266 267 262 265 269 267 266 266 267 268 269 271 272 272 274 278 281 285 288 289 289 292 294 295 293 291 290 285 280 278 277 275 274 271 260 253
273 271 268 265 264 262 262 262 257 260 262 264 264 265 264 261 260 260 258 259 259 262 263 265 266 267 270 274 278 282 284 287 289 290 291 292 292 291 288 286 282 277 275 273 270 268 266 256 250
288 282 276 271 268 264 260 260 256 256 255 256 258 263 262 257 251 248 248 249 250 253 254 258 261 263 266 271 274 278 283 291 294 293 293 293 293 291 288 286 283 280 276 269 265 262 258 253 249
298 293 288 280 275 271 263 260 257 253 252 252 254 256 256 249 242 238 237 239 240 241 242 245 254 259 266 270 272 278 287 294 295 294 295 295 294 291 288 287 285 281 277 270 262 258 254 251 249
296 292 289 283 277 272 263 257 252 251 250 250 250 251 248 241 236 234 232 234 236 237 235 233 242 253 262 266 273 282 289 292 293 294 294 293 291 289 288 287 284 280 276 270 262 255 250 247 247
289 285 281 276 274 264 253 249 244 240 236 239 237 235 228 221 224 226 228 233 237 239 230 223 230 240 254 267 277 283 287 289 291 292 291 291 291 292 291 288 282 278 274 270 264 254 249 246 245
287 279 272 267 266 258 249 248 248 241 230 227 229 228 228 230 226 224 229 233 234 232 228 222 223 238 259 273 280 282 285 288 290 291 290 290 291 291 290 286 280 275 272 270 264 252 246 246 247
283 274 261 258 258 253 248 249 253 249 244 239 240 240 238 233 228 223 225 225 224 216 212 212 226 247 265 274 278 280 283 287 289 290 289 288 288 288 287 283 277 272 268 265 262 253 245 245 246
276 265 255 251 249 243 244 244 249 247 243 241 246 249 241 229 225 224 223 217 207 198 203 220 243 261 272 277 277 278 280 282 286 288 287 284 282 283 282 278 274 268 264 260 257 251 243 241 241
275 261 252 249 245 239 239 243 251 255 253 248 250 243 230 228 228 231 226 214 196 199 216 232 254 271 279 279 278 277 281 285 288 289 288 284 279 277 277 275 270 265 261 258 256 251 245 242 240
Height
5895 5895 5896 5898 5899 5898 5897 5897 5897 5897 5898 5898 5896 5896 5895 5896 5896 5897 5894 5894 5894 5894 5894 5894 5893 5892 5891 5890 5890 5889 5889 5887 5886 5884 5883 5881 5880 5879 5878 5877 5877 5876 5875 5875 5874 5873 5873 5874 5877
5895 5895 5897 5898 5897 5898 5898 5897 5897 5897 5898 5898 5897 5896 5895 5895 5895 5894 5893 5893 5893 5894 5894 5894 5893 5892 5891 5890 5890 5890 5889 5888 5887 5885 5883 5881 5880 5879 5878 5877 5876 5875 5874 5874 5873 5871 5870 5872 5874
5895 5895 5897 5897 5897 5898 5898 5897 5897 5897 5897 5897 5897 5896 5895 5895 5894 5893 5892 5892 5893 5894 5894 5894 5893 5892 5891 5891 5890 5890 5889 5888 5887 5886 5884 5882 5880 5878 5878 5876 5875 5874 5874 5872 5871 5870 5869 5870 5872
5896 5897 5897 5897 5897 5897 5897 5897 5897 5898 5897 5896 5896 5895 5894 5894 5893 5892 5891 5892 5892 5893 5894 5894 5893 5893 5892 5891 5891 5890 5890 5889 5887 5886 5884 5882 5880 5878 5877 5876 5875 5873 5873 5872 5871 5870 5869 5869 5871
5896 5896 5897 5896 5896 5897 5897 5897 5897 5898 5898 5896 5896 5895 5894 5893 5892 5891 5890 5891 5891 5892 5893 5894 5893 5893 5892 5891 5891 5890 5890 5889 5888 5886 5883 5881 5880 5878 5876 5875 5874 5873 5872 5871 5871 5870 5870 5870 5872
5897 5896 5896 5895 5896 5896 5896 5896 5897 5898 5898 5896 5896 5895 5893 5892 5891 5890 5889 5889 5890 5891 5892 5893 5893 5893 5893 5892 5891 5890 5889 5889 5888 5886 5883 5881 5879 5878 5876 5875 5874 5872 5871 5871 5871 5871 5870 5871 5872
5896 5895 5895 5895 5896 5896 5896 5896 5897 5897 5897 5896 5895 5894 5893 5892 5891 5890 5889 5889 5889 5890 5891 5892 5893 5893 5893 5893 5892 5891 5890 5889 5887 5885 5883 5881 5879 5877 5875 5874 5873 5872 5871 5870 5871 5871 5871 5871 5873
5894 5896 5895 5895 5895 5896 5896 5896 5896 5896 5896 5895 5894 5893 5892 5892 5891 5890 5889 5889 5889 5889 5890 5891 5892 5892 5893 5893 5892 5891 5890 5888 5886 5884 5882 5880 5878 5876 5874 5873 5872 5871 5870 5870 5870 5871 5871 5872 5873
5894 5896 5894 5894 5894 5894 5895 5895 5895 5896 5895 5893 5892 5892 5892 5891 5890 5889 5889 5888 5888 5889 5889 5890 5890 5891 5892 5892 5891 5890 5889 5887 5886 5884 5881 5879 5877 5875 5873 5872 5871 5870 5869 5869 5869 5870 5870 5871 5872
5894 5894 5894 5894 5892 5893 5893 5894 5894 5895 5895 5894 5892 5891 5891 5890 5889 5888 5888 5887 5887 5887 5888 5888 5889 5889 5890 5891 5890 5889 5888 5886 5885 5883 5880 5878 5877 5874 5873 5871 5870 5869 5868 5868 5868 5868 5869 5870 5871
5892 5892 5892 5893 5892 5891 5891 5892 5892 5892 5893 5893 5893 5891 5890 5889 5888 5887 5887 5886 5886 5886 5886 5886 5887 5887 5888 5888 5889 5888 5887 5885 5884 5882 5879 5877 5875 5874 5871 5870 5869 5868 5867 5866 5866 5866 5867 5867 5868
5891 5891 5891 5891 5891 5890 5889 5889 5890 5889 5889 5890 5890 5889 5888 5887 5886 5886 5885 5885 5885 5884 5884 5884 5885 5885 5885 5885 5886 5886 5885 5884 5882 5880 5878 5875 5874 5872 5870 5869 5868 5867 5865 5864 5863 5863 5864 5865 5866
5887 5888 5888 5888 5887 5887 5886 5886 5887 5887 5885 5886 5886 5886 5886 5885 5884 5884 5884 5883 5884 5883 5883 5882 5882 5882 5882 5882 5882 5882 5882 5881 5879 5878 5876 5874 5872 5871 5869 5868 5866 5865 5864 5862 5861 5861 5861 5862 5863
5883 5884 5885 5884 5883 5883 5883 5884 5884 5882 5881 5881 5882 5882 5882 5882 5882 5882 5882 5881 5882 5881 5880 5879 5879 5878 5879 5879 5879 5878 5878 5877 5876 5875 5873 5872 5871 5869 5868 5866 5864 5863 5862 5861 5860 5859 5859 5859 5860
5879 5880 5880 5879 5879 5879 5880 5881 5880 5878 5877 5877 5877 5878 5878 5878 5879 5879 5880 5879 5879 5878 5878 5876 5875 5874 5874 5874 5874 5874 5874 5873 5873 5872 5870 5870 5868 5867 5865 5864 5862 5861 5859 5859 5858 5857 5857 5857 5856
5873 5875 5875 5874 5875 5874 5876 5877 5875 5874 5874 5873 5872 5873 5873 5874 5874 5875 5876 5876 5875 5875 5875 5874 5872 5871 5871 5870 5870 5870 5870 5870 5869 5868 5867 5866 5866 5864 5863 5862 5860 5858 5857 5856 5855 5854 5854 5853 5853
5868 5868 5868 5869 5868 5868 5868 5870 5870 5868 5868 5867 5867 5866 5867 5868 5869 5869 5870 5871 5871 5870 5870 5870 5870 5869 5868 5867 5866 5865 5865 5865 5865 5864 5863 5862 5862 5861 5860 5858 5857 5856 5854 5852 5852 5851 5850 5849 5849
5862 5860 5860 5860 5860 5860 5860 5862 5863 5861 5860 5860 5860 5859 5860 5860 5862 5862 5863 5864 5865 5865 5865 5865 5865 5865 5864 5863 5863 5862 5862 5861 5860 5860 5859 5858 5857 5856 5855 5854 5853 5852 5850 5849 5847 5847 5846 5845 5844
5853 5852 5851 5851 5851 5851 5851 5852 5854 5852 5852 5852 5852 5852 5852 5853 5854 5855 5857 5858 5859 5860 5860 5859 5859 5859 5859 5858 5858 5858 5858 5857 5856 5855 5854 5854 5853 5851 5850 5849 5848 5846 5845 5844 5843 5842 5841 5840 5839
5844 5843 5841 5840 5840 5840 5841 5843 5845 5844 5843 5843 5844 5844 5843 5844 5846 5848 5850 5851 5853 5854 5854 5854 5854 5853 5853 5853 5854 5854 5853 5853 5852 5851 5850 5849 5848 5846 5845 5843 5842 5841 5840 5839 5838 5837 5836 5836 5835
5835 5833 5831 5830 5829 5828 5829 5833 5835 5835 5834 5834 5835 5836 5836 5836 5837 5840 5842 5844 5846 5847 5848 5848 5848 5848 5848 5848 5849 5849 5848 5848 5847 5846 5845 5844 5842 5841 5839 5838 5836 5835 5834 5833 5831 5831 5831 5831 5830
5826 5823 5821 5819 5818 5818 5818 5820 5826 5824 5824 5824 5825 5826 5826 5827 5829 5831 5834 5836 5839 5841 5841 5842 5843 5843 5844 5844 5844 5844 5844 5843 5843 5841 5840 5838 5836 5834 5833 5831 5830 5829 5827 5826 5825 5825 5825 5825 5825
5817 5815 5812 5810 5808 5808 5808 5809 5816 5813 5813 5813 5814 5815 5816 5818 5820 5823 5825 5828 5830 5832 5833 5834 5835 5837 5838 5839 5839 5839 5839 5838 5836 5835 5833 5831 5829 5827 5826 5824 5823 5821 5820 5819 5818 5818 5818 5818 5819
5808 5806 5803 5801 5800 5800 5800 5801 5804 5802 5802 5803 5805 5806 5808 5810 5812 5815 5818 5819 5821 5822 5824 5825 5828 5830 5832 5833 5834 5834 5833 5831 5830 5828 5826 5824 5822 5820 5819 5818 5816 5814 5813 5811 5811 5811 5811 5812 5813
5798 5796 5794 5793 5793 5793 5794 5794 5794 5793 5794 5796 5798 5799 5800 5802 5805 5808 5811 5812 5812 5813 5815 5817 5821 5824 5826 5827 5828 5828 5827 5825 5824 5822 5820 5818 5816 5814 5813 5811 5809 5808 5806 5805 5804 5804 5804 5805 5806
5789 5788 5787 5786 5785 5787 5787 5787 5787 5787 5788 5790 5792 5794 5795 5797 5799 5802 5804 5805 5806 5807 5808 5810 5815 5819 5822 5823 5823 5822 5821 5819 5818 5816 5814 5812 5810 5808 5806 5804 5802 5801 5799 5798 5797 5797 5798 5799 5800
5777 5776 5776 5777 5777 5779 5780 5781 5781 5781 5782 5784 5786 5788 5790 5792 5794 5795 5796 5797 5798 5800 5803 5807 5811 5815 5817 5818 5817 5816 5815 5813 5812 5810 5808 5806 5803 5801 5799 5797 5796 5795 5794 5792 5791 5791 5792 5793 5795
5764 5765 5766 5768 5769 5772 5774 5775 5775 5775 5777 5779 5781 5783 5785 5786 5788 5789 5790 5789 5791 5795 5800 5804 5808 5811 5812 5812 5811 5810 5808 5807 5806 5804 5802 5799 5797 5795 5793 5791 5790 5789 5789 5788 5787 5787 5787 5789 5790
5752 5753 5755 5759 5762 5766 5768 5772 5770 5771 5773 5775 5776 5778 5780 5781 5782 5785 5786 5786 5789 5794 5798 5802 5805 5807 5807 5806 5805 5803 5802 5801 5799 5797 5794 5792 5790 5789 5787 5786 5785 5785 5784 5784 5783 5783 5784 5784 5785
5745 5746 5749 5753 5755 5760 5764 5768 5766 5768 5769 5771 5772 5774 5775 5777 5779 5781 5783 5786 5790 5794 5797 5800 5802 5802 5801 5800 5798 5797 5795 5794 5791 5789 5786 5784 5783 5782 5782 5780 5779 5779 5779 5779 5780 5780 5780 5781 5782